[[{"header":{"parameterUnit":"m.s-1","parameterCategory":1,"la1":30.2991,"la2":30.254,"lo1":-89.0895,"lo2":-89.0444,"dy":0.0017,"dx":0.0017,"nx":28,"ny":28,"refTime":"2024-06-19T09:00:00:Z","depth":0,"parameterNumber":2,"parameterNumberName":"U-component_of_WINDS"},"data":[0,0,0,0,0,0,0,0,0,0,0,0,0,0,0,0,0,0,0,0,0,0,0,0,0,0,0,0,0,0,0,0,0,0,0,0,0,0,0,0,0,0,0,0,0,0,0,0,0,0,0,0,0,0,0,0,0,0,-5.0053,-5.0052,0,-4.994,-4.9939,-4.9937,-4.9619,-4.9612,-4.9605,-4.9599,-4.9493,-4.9496,-4.95,0,0,0,0,0,0,0,0,0,0,0,0,0,-5.0002,-5.0004,-5.0053,-5.0051,-5.005,-4.994,-4.9939,-4.9937,-4.962,-4.9612,-4.9604,-4.9596,-4.9492,-4.9496,-4.95,0,0,0,0,0,0,0,0,0,0,0,0,0,-4.997,-5.0005,-5.0053,-4.9878,-4.9862,-4.994,-4.9939,-4.9937,-4.9622,-4.9612,-4.9601,-4.9592,-4.949,-4.9496,-4.9501,-4.9743,0,0,-4.9518,-4.952,0,0,0,0,0,0,0,0,-4.9973,-4.9973,-4.9906,-4.9891,-4.9872,-4.9783,-4.9881,-4.9872,-4.9625,-4.9714,-4.9599,-4.9587,-4.9598,-4.9594,-4.9596,-4.9738,-4.9733,-4.9518,-4.9521,-4.9524,-4.9525,0,0,0,0,0,0,0,-4.9975,-4.9976,-5.0008,-4.9905,-4.9885,-4.9808,-4.9792,-4.9878,-4.9716,-4.9705,-4.9681,-4.9672,-4.9587,-4.9592,-4.9591,-4.9732,-4.9518,-4.9523,-4.9526,-4.9528,-5.0064,-5.0075,0,0,0,0,0,0,-5.0001,-4.998,-5.0012,-5.0005,-4.9897,-4.9818,-4.98,-4.9822,-4.9714,-4.9687,-4.9681,-4.9658,-4.9588,-4.9585,-4.9587,-4.9861,-4.9524,-4.9529,-4.9532,-5.0054,-5.0067,-5.0079,0,0,0,0,0,0,-5.0001,-5.0007,-5.0016,-4.9986,-4.9981,-4.9829,-4.9857,-4.9825,-4.9829,-4.9696,-4.9666,-4.9715,-4.9579,-4.9579,-4.9705,-4.9853,-4.9531,-4.9536,-5.0041,-5.0058,-5.0073,-5.0414,0,0,0,0,0,0,-5.0001,-5.0009,-5.0098,-4.999,-4.9984,-5.0136,-4.9866,-4.9831,-4.9838,-4.9807,-4.972,-4.9695,-4.9571,-4.9699,-4.9711,-4.9855,-4.954,-5.0027,-5.0048,-5.0068,-5.0389,-5.044,-5.0484,0,0,0,0,0,-5.0,-5.0201,-5.0104,-5.011,-5.0091,-5.0145,-5.0142,-4.9992,-4.9852,-4.994,-4.9854,-4.9698,-4.9835,-4.9714,-4.9725,-4.9873,-5.0017,-5.0042,-5.0066,-5.0368,-5.043,-5.0483,0,0,0,0,0,0,-5.0334,-5.0184,-5.0074,-5.0245,-5.021,-5.0091,-5.0198,-5.0063,-5.0069,-5.004,-4.9856,-4.9839,-4.9992,-4.9944,-4.9813,-5.0101,-4.99,-4.9928,-5.0126,-5.0184,-5.0231,-5.0239,-4.9545,0,0,0,0,0,-5.0426,-5.048,-5.0347,-5.0511,-5.0498,-5.0353,-5.037,-5.0257,-5.0215,-5.0199,-5.0122,-5.009,-5.0124,-5.0151,-5.0176,-5.0381,-5.0357,-5.0488,-5.0535,-5.0575,-5.0602,-5.0706,-5.0762,-5.016,-5.016,-5.0159,0,0,-5.062,-5.0544,-5.059,-5.0576,-5.0535,-5.0596,-5.0342,-5.0419,-5.0463,-5.0211,-5.0324,-5.0268,-5.0219,-5.0386,-5.0455,-5.0351,-5.0763,-5.0606,-5.0639,-5.0644,-5.0737,-5.0794,-5.0845,-5.0177,-5.0173,-5.0171,0,0,-5.1003,-5.0952,-5.1081,-5.1045,-5.0985,-5.0886,-5.0918,-5.0819,-5.0771,-5.0881,-5.0693,-5.0745,-5.0809,-5.0781,-5.0776,-5.1148,-5.1005,-5.1162,-5.1411,-5.1514,-5.1562,-5.1603,-5.1736,-5.1786,-5.1189,-5.119,-5.119,0,-5.1253,-5.1334,-5.1166,-5.1254,-5.1253,-5.1025,-5.1156,-5.113,-5.1084,-5.109,-5.0973,-5.1048,-5.0999,-5.1155,-5.1246,-5.1249,-5.1281,-5.1171,-5.1568,-5.1608,-5.1644,-5.1768,-5.1819,-5.1209,-5.1207,-5.1205,-5.1203,0,-5.1643,-5.1704,-5.1816,-5.1772,-5.1784,-5.1895,-5.1745,-5.1778,-5.1664,-5.1579,-5.1695,-5.1628,-5.1635,-5.1663,-5.1555,-5.1805,-5.1742,-5.16,-5.1395,-5.1723,-5.1837,-5.1884,-5.1237,-5.123,-5.1224,-5.1219,0,0,-5.2235,-5.2094,-5.2139,-5.2115,-5.2032,-5.2077,-5.2177,-5.2179,-5.2212,-5.2188,-5.2267,-5.2327,-5.2193,-5.2188,-5.2074,-5.2165,-5.2464,-5.2011,-5.2007,-5.2098,-5.2736,-5.2843,-5.2901,-5.2368,-5.2377,-5.2383,-5.274,0,-5.2597,-5.2755,-5.2606,-5.2795,-5.2849,-5.2632,-5.2719,-5.2679,-5.2602,-5.2638,-5.2554,-5.2599,-5.242,-5.2415,-5.2495,-5.2411,-5.259,-5.2383,-5.2443,-5.2447,-5.2462,-5.296,-5.3074,-5.3414,-5.2783,-5.2791,-5.2796,0,-5.304,-5.3032,-5.3226,-5.3127,-5.3144,-5.3225,-5.3215,-5.3252,-5.3203,-5.314,-5.3134,-5.2994,-5.3087,-5.2886,-5.3013,-5.2875,-5.2891,-5.2854,-5.2863,-5.2863,-5.2642,-5.2975,-5.3519,-5.357,-5.2865,-5.2859,-5.2854,0,-5.3452,-5.349,-5.3609,-5.3596,-5.3486,-5.3547,-5.3505,-5.3444,-5.3455,-5.3448,-5.3454,-5.346,-5.3464,-5.3473,-5.3339,-5.3205,-5.3483,-5.3271,-5.3435,-5.3439,-5.3504,-5.3502,-5.4059,-5.3515,-5.3515,-5.3514,-5.3513,0,-5.3871,-5.3999,-5.3792,-5.3867,-5.4003,-5.3831,-5.3972,-5.3907,-5.3855,-5.3915,-5.3729,-5.379,-5.3609,-5.3652,-5.3548,-5.3669,-5.3672,-5.3626,-5.3597,-5.3642,-5.3649,-5.365,-5.3623,-5.3527,-5.3524,-5.3521,-5.3519,0,-5.4354,-5.4221,-5.4337,-5.4222,-5.4196,-5.4302,-5.4203,-5.4269,-5.4178,-5.4256,-5.4265,-5.4126,-5.4165,-5.4032,-5.4052,-5.3982,-5.416,-5.4092,-5.4176,-5.4155,-5.4327,-5.4313,-5.4905,-5.4974,-5.4388,-5.4393,-5.4398,0,-5.4631,-5.4722,-5.4615,-5.464,-5.4606,-5.4649,-5.4657,-5.4493,-5.4511,-5.4461,-5.4533,-5.4557,-5.4567,-5.4642,-5.4544,-5.4559,-5.449,-5.4696,-5.4491,-5.4534,-5.4493,-5.4489,-5.4497,-5.4739,-5.4747,-5.4752,-5.4757,0,-5.5135,-5.5064,-5.5082,-5.5078,-5.5093,-5.5084,-5.5061,-5.5093,-5.4916,-5.4946,-5.4982,-5.499,-5.5008,-5.5035,-5.5028,-5.4987,-5.4845,-5.4822,-5.4861,-5.4909,-5.4953,-5.4931,-5.4292,-5.481,-5.4805,-5.4801,-5.4798,-5.4796,-5.5522,-5.5593,-5.5528,-5.5555,-5.552,-5.5503,-5.5557,-5.5473,-5.5499,-5.5498,-5.5401,-5.5458,-5.5406,-5.5381,-5.5354,-5.5398,-5.5302,-5.5359,-5.5373,-5.5389,-5.5418,-5.4947,-5.5396,-5.5394,-5.5393,-5.5391,-5.539,0,-5.6016,-5.5963,-5.5989,-5.5961,-5.5983,-5.5842,-5.581,-5.5839,-5.589,-5.5852,-5.5864,-5.5907,-5.5932,-5.5836,-5.5848,-5.5902,-5.5837,-5.591,-5.5905,-5.5898,-5.5503,-5.5468,-5.5963,-5.5963,-5.5962,-5.5962,-5.5962,-5.5962,-5.6276,-5.6388,-5.631,-5.6403,-5.6349,-5.64,-5.6394,-5.6378,-5.6346,-5.6401,-5.6419,-5.6355,-5.6294,-5.6299,-5.6317,-5.6288,-5.6302,-5.6398,-5.6348,-5.5981,-5.5926,-5.5872,-5.5838,-5.6403,-5.6403,-5.6738,-5.6741,-5.6743]},{"header":{"parameterUnit":"m.s-1","parameterCategory":1,"la1":30.2991,"la2":30.254,"lo1":-89.0895,"lo2":-89.0444,"dy":0.0017,"dx":0.0017,"nx":28,"ny":28,"refTime":"2024-06-19T09:00:00:Z","depth":0,"parameterNumber":3,"parameterNumberName":"V-component_of_WINDS"},"data":[0,0,0,0,0,0,0,0,0,0,0,0,0,0,0,0,0,0,0,0,0,0,0,0,0,0,0,0,0,0,0,0,0,0,0,0,0,0,0,0,0,0,0,0,0,0,0,0,0,0,0,0,0,0,0,0,0,0,-0.891,-0.891,0,-0.8967,-0.8967,-0.8968,-0.9012,-0.9013,-0.9013,-0.9014,-0.907,-0.9071,-0.9072,0,0,0,0,0,0,0,0,0,0,0,0,0,-0.8836,-0.8837,-0.891,-0.891,-0.8911,-0.8967,-0.8967,-0.8968,-0.9012,-0.9013,-0.9013,-0.9014,-0.9069,-0.9071,-0.9072,0,0,0,0,0,0,0,0,0,0,0,0,0,-0.8878,-0.8837,-0.8909,-0.894,-0.8943,-0.8966,-0.8967,-0.8968,-0.9012,-0.9013,-0.9013,-0.9014,-0.9069,-0.9071,-0.9072,-0.9069,0,0,-0.9077,-0.9078,0,0,0,0,0,0,0,0,-0.8875,-0.8881,-0.8935,-0.8938,-0.8941,-0.8983,-0.8962,-0.9002,-0.9012,-0.8986,-0.9014,-0.9014,-0.904,-0.9044,-0.9053,-0.9072,-0.9074,-0.9077,-0.9078,-0.9079,-0.9079,0,0,0,0,0,0,0,-0.8872,-0.8878,-0.8932,-0.8935,-0.894,-0.895,-0.8956,-0.897,-0.9009,-0.8988,-0.8992,-0.8998,-0.9042,-0.9052,-0.9055,-0.9075,-0.9077,-0.9079,-0.908,-0.908,-0.9092,-0.9091,0,0,0,0,0,0,-0.8865,-0.8876,-0.893,-0.8934,-0.8909,-0.895,-0.8958,-0.8969,-0.9009,-0.9015,-0.8997,-0.9,-0.9049,-0.9053,-0.9057,-0.9055,-0.9079,-0.908,-0.9081,-0.9093,-0.9092,-0.9091,0,0,0,0,0,0,-0.8863,-0.887,-0.8928,-0.8906,-0.8914,-0.8951,-0.8963,-0.897,-0.8979,-0.9015,-0.9022,-0.9,-0.9049,-0.9055,-0.9066,-0.9058,-0.9081,-0.9083,-0.9093,-0.9092,-0.9091,-0.9051,0,0,0,0,0,0,-0.8861,-0.8869,-0.8869,-0.8905,-0.8915,-0.8936,-0.8963,-0.897,-0.8982,-0.8986,-0.902,-0.9026,-0.905,-0.9063,-0.9067,-0.906,-0.9084,-0.9094,-0.9093,-0.9092,-0.9053,-0.9049,-0.9045,0,0,0,0,0,-0.8858,-0.8855,-0.8869,-0.8875,-0.8916,-0.8936,-0.8941,-0.897,-0.8982,-0.8981,-0.9004,-0.9025,-0.9058,-0.9064,-0.9069,-0.9062,-0.9095,-0.9093,-0.9092,-0.9055,-0.905,-0.9045,0,0,0,0,0,0,-0.8816,-0.886,-0.8876,-0.8884,-0.8906,-0.8943,-0.8944,-0.8963,-0.8981,-0.8984,-0.9018,-0.9025,-0.9032,-0.9048,-0.9054,-0.9061,-0.9079,-0.9078,-0.9049,-0.9045,-0.904,-0.9036,-0.9085,0,0,0,0,0,-0.8808,-0.8821,-0.8859,-0.8862,-0.8873,-0.8906,-0.8916,-0.8936,-0.8959,-0.8968,-0.8992,-0.9013,-0.9029,-0.9038,-0.9054,-0.9056,-0.9063,-0.9054,-0.905,-0.9047,-0.9045,-0.9046,-0.9042,-0.9086,-0.9086,-0.9086,0,0,-0.879,-0.8816,-0.8822,-0.8855,-0.8874,-0.8885,-0.8913,-0.8925,-0.8934,-0.897,-0.8981,-0.8999,-0.9025,-0.9031,-0.9035,-0.9046,-0.9035,-0.9045,-0.9042,-0.9042,-0.9044,-0.904,-0.9036,-0.9085,-0.9085,-0.9085,0,0,-0.8764,-0.8786,-0.8791,-0.881,-0.8838,-0.8861,-0.8862,-0.8896,-0.8909,-0.8921,-0.8948,-0.8959,-0.8985,-0.9002,-0.9013,-0.8993,-0.9012,-0.8998,-0.8975,-0.8976,-0.8973,-0.897,-0.8961,-0.8957,-0.8996,-0.8996,-0.8996,0,-0.8739,-0.8759,-0.8791,-0.8801,-0.8813,-0.8847,-0.8852,-0.8868,-0.89,-0.8907,-0.8918,-0.8951,-0.8971,-0.898,-0.8975,-0.8985,-0.8986,-0.8993,-0.8971,-0.8968,-0.8966,-0.8958,-0.8955,-0.8994,-0.8995,-0.8995,-0.8995,0,-0.8725,-0.8738,-0.8739,-0.8769,-0.8782,-0.8789,-0.8821,-0.883,-0.8849,-0.8869,-0.888,-0.8906,-0.8927,-0.8931,-0.8949,-0.8943,-0.8948,-0.8965,-0.8983,-0.8959,-0.8952,-0.8949,-0.8991,-0.8992,-0.8993,-0.8993,0,0,-0.8674,-0.8722,-0.8721,-0.8735,-0.8769,-0.8779,-0.8787,-0.8808,-0.8814,-0.8835,-0.8842,-0.8862,-0.8878,-0.8891,-0.8912,-0.8913,-0.8893,-0.8929,-0.893,-0.892,-0.8885,-0.8871,-0.8867,-0.8907,-0.8906,-0.8906,-0.8883,0,-0.8652,-0.8669,-0.8697,-0.8705,-0.8716,-0.8749,-0.8755,-0.8776,-0.8796,-0.8808,-0.8829,-0.8842,-0.8862,-0.887,-0.8873,-0.8895,-0.8886,-0.8897,-0.8911,-0.8911,-0.8902,-0.8864,-0.885,-0.8827,-0.888,-0.888,-0.888,0,-0.8629,-0.8648,-0.8656,-0.8688,-0.8694,-0.87,-0.8721,-0.8733,-0.8756,-0.877,-0.8785,-0.8808,-0.8817,-0.8835,-0.8847,-0.8853,-0.8861,-0.8873,-0.8872,-0.8873,-0.8893,-0.8862,-0.882,-0.8816,-0.8876,-0.8876,-0.8876,0,-0.8588,-0.8616,-0.8624,-0.8635,-0.8673,-0.8676,-0.8692,-0.8717,-0.8727,-0.8746,-0.8752,-0.8771,-0.8781,-0.8795,-0.8821,-0.8833,-0.883,-0.885,-0.884,-0.8839,-0.8837,-0.8836,-0.8793,-0.8844,-0.8844,-0.8844,-0.8844,0,-0.856,-0.8563,-0.8606,-0.8611,-0.8615,-0.8648,-0.8651,-0.867,-0.8691,-0.8699,-0.8729,-0.8736,-0.8772,-0.8782,-0.8803,-0.8809,-0.8814,-0.8824,-0.8829,-0.882,-0.8819,-0.8825,-0.8826,-0.8844,-0.8844,-0.8844,-0.8844,0,-0.8514,-0.8544,-0.8554,-0.859,-0.8599,-0.86,-0.863,-0.8635,-0.8656,-0.8666,-0.867,-0.8703,-0.8717,-0.8746,-0.8768,-0.8782,-0.8782,-0.8792,-0.8774,-0.8777,-0.8764,-0.8764,-0.8722,-0.8717,-0.8772,-0.8772,-0.8771,0,-0.8493,-0.8496,-0.8532,-0.854,-0.8555,-0.8567,-0.8578,-0.8611,-0.862,-0.8648,-0.8649,-0.8666,-0.868,-0.8701,-0.8726,-0.8743,-0.8753,-0.8737,-0.8755,-0.8746,-0.875,-0.8749,-0.8748,-0.8732,-0.8731,-0.8731,-0.873,0,-0.8452,-0.8467,-0.8482,-0.8501,-0.8513,-0.853,-0.8549,-0.8553,-0.859,-0.8599,-0.8614,-0.8625,-0.8648,-0.8663,-0.8683,-0.8699,-0.8719,-0.8724,-0.8722,-0.8712,-0.8701,-0.8705,-0.876,-0.8725,-0.8725,-0.8726,-0.8726,-0.8726,-0.8417,-0.8421,-0.8447,-0.8462,-0.8479,-0.8496,-0.8502,-0.8524,-0.8537,-0.8558,-0.8577,-0.8589,-0.8612,-0.8642,-0.8656,-0.8666,-0.8676,-0.8674,-0.8673,-0.8671,-0.8667,-0.8701,-0.867,-0.867,-0.867,-0.867,-0.867,0,-0.8376,-0.8394,-0.8408,-0.8433,-0.8445,-0.8465,-0.8486,-0.8494,-0.8505,-0.8525,-0.8539,-0.8556,-0.8571,-0.8597,-0.8614,-0.8617,-0.8626,-0.862,-0.8619,-0.8622,-0.8657,-0.8656,-0.8611,-0.8611,-0.8611,-0.8611,-0.8611,-0.8611,-0.8356,-0.8363,-0.838,-0.8396,-0.8414,-0.8427,-0.8437,-0.8452,-0.8468,-0.8485,-0.8498,-0.8516,-0.8538,-0.8556,-0.8571,-0.8578,-0.8582,-0.8572,-0.8582,-0.8614,-0.8619,-0.8625,-0.8624,-0.8573,-0.8573,-0.8545,-0.8545,-0.8545]}]]